GFSNIL_sfc_thetae_108.txt.gz
Theta_e
335 332 331 330 327 325 324 325 326 328 327 325 324 322 322 321 321 321 320 319 318 319
334 331 331 329 328 327 326 325 324 326 327 325 324 323 322 320 320 321 320 319 319 319
332 333 331 329 327 326 326 324 323 323 324 325 324 322 321 319 319 318 318 319 319 318
330 330 330 328 327 326 323 322 321 322 322 323 322 322 319 318 317 316 317 317 318 317
327 328 327 326 326 323 321 322 322 322 321 321 321 321 319 318 317 316 316 317 316 316
325 326 325 324 325 322 321 321 321 321 321 320 320 319 318 318 317 317 316 315 315 315
322 324 324 324 322 321 321 320 320 320 321 320 320 319 319 317 316 315 316 316 316 315
321 322 323 322 320 320 320 320 319 319 319 318 318 314 318 318 317 316 316 317 317 316
312 317 319 319 319 319 318 318 318 318 319 317 301 291 293 305 317 316 316 315 315 316
298 301 305 313 314 313 312 317 314 314 302 296 294 290 292 292 315 314 309 305 307 312
294 294 295 298 297 296 296 296 296 296 296 292 290 289 290 290 309 298 294 292 295 297
291 291 290 290 290 290 289 288 287 288 288 287 287 288 290 296 298 291 287 287 287 289
290 289 288 286 286 288 288 287 286 285 285 286 285 287 289 293 290 285 284 284 284 285
287 288 289 287 287 288 286 286 285 284 284 284 285 285 287 288 286 284 283 282 282 284

GFSNIL_sfc_thetae_111.txt.gz
Theta_e
329 328 327 326 325 324 324 322 324 325 323 322 321 320 319 320 320 319 319 318 318 318
330 328 327 328 326 324 323 322 323 324 324 324 321 321 320 320 320 319 318 318 319 318
328 329 328 328 325 322 322 323 320 323 323 322 322 321 320 319 320 319 319 319 318 317
328 327 326 327 325 324 322 320 320 320 322 322 322 321 320 319 319 318 318 319 319 318
324 325 325 324 323 322 319 320 318 318 319 322 322 321 319 317 317 317 316 317 317 317
320 323 323 323 321 320 320 319 318 319 320 320 321 320 319 318 317 317 316 316 316 317
320 322 323 322 320 320 320 319 319 321 320 319 319 319 319 318 317 317 317 317 317 316
303 320 320 320 320 320 320 319 319 319 318 319 318 314 318 317 316 315 315 315 316 316
297 300 311 318 319 318 318 318 317 317 316 304 300 292 293 310 316 316 315 314 315 316
293 294 296 298 307 310 314 312 310 305 301 296 294 290 292 293 316 313 307 307 311 311
291 292 292 292 290 291 292 294 293 292 292 290 290 289 291 294 300 295 293 293 295 296
289 290 290 289 288 288 287 287 287 287 287 287 287 289 291 295 292 288 286 287 288 288
287 287 287 287 286 287 286 285 285 285 285 286 286 288 289 290 288 284 284 284 285 286
285 285 285 287 286 286 286 285 285 283 283 284 284 285 287 287 285 284 283 283 283 284

GFSNIL_sfc_thetae_114.txt.gz
Theta_e
330 327 327 325 326 324 324 324 324 325 323 320 319 320 318 318 319 320 320 318 318 317
329 327 326 325 325 324 324 325 324 325 322 319 319 319 318 317 318 319 319 318 318 317
327 328 327 325 324 323 323 323 323 324 323 322 320 320 319 318 319 318 318 319 317 317
327 328 326 325 325 324 322 322 322 323 323 322 320 320 319 319 318 319 318 318 318 317
322 322 325 324 324 323 322 323 322 322 322 322 321 320 319 318 318 318 317 318 317 317
308 321 321 322 322 322 321 321 320 320 321 321 321 320 320 319 318 318 318 318 318 318
301 305 321 319 320 320 320 319 319 319 319 321 321 321 320 319 318 317 317 317 317 317
297 298 302 318 318 320 320 319 320 319 318 319 319 316 319 319 317 317 316 316 317 317
294 295 295 298 312 318 319 318 318 318 317 309 302 292 293 309 316 316 315 314 315 316
291 292 292 293 293 295 298 306 304 303 302 297 294 290 293 292 316 315 314 312 313 312
289 290 291 291 289 288 289 290 291 290 291 291 291 289 291 293 301 296 293 293 295 299
287 287 288 287 287 287 287 286 285 286 286 287 287 289 291 294 291 288 286 287 288 289
285 285 285 286 286 286 286 285 285 284 285 285 285 288 289 289 288 285 284 284 285 286
282 283 283 285 285 285 285 285 285 284 284 284 285 285 287 287 285 284 283 283 283 284

GFSNIL_sfc_thetae_120.txt.gz
Theta_e
310 316 322 328 326 326 326 326 327 328 328 328 326 325 324 323 323 323 322 320 320 319
307 311 317 324 326 326 325 323 324 327 327 326 325 323 322 323 321 320 320 319 319 318
303 306 309 318 327 324 324 324 325 325 326 325 323 322 322 321 320 319 318 318 318 318
300 302 306 319 325 325 322 323 323 324 324 324 322 321 321 320 318 317 316 317 318 317
297 299 301 304 311 323 322 322 321 322 324 323 321 321 319 317 317 316 315 317 317 317
294 295 297 299 303 314 322 322 322 323 323 322 321 319 319 318 317 316 315 316 316 317
292 293 294 296 297 299 304 320 321 322 323 322 321 320 319 318 316 315 316 317 317 318
290 292 292 294 295 295 295 297 300 320 321 322 321 320 319 318 317 317 316 317 318 318
289 289 290 290 292 292 293 293 293 294 300 308 299 294 299 312 317 317 317 316 317 318
286 287 288 288 289 289 289 290 290 290 290 290 291 290 297 297 318 317 317 316 316 315
284 284 286 286 286 287 288 287 287 288 288 288 289 289 291 294 307 301 294 293 297 311
282 282 283 283 284 285 285 285 285 285 286 286 286 288 288 290 290 287 286 287 288 288
280 281 281 282 282 284 285 284 284 283 284 284 284 286 288 288 286 285 285 285 285 286
280 280 280 282 283 283 283 283 283 283 283 283 284 284 285 286 286 284 284 284 284 285

GFSNIL_sfc_thetae_123.txt.gz
Theta_e
309 311 315 319 327 331 330 332 331 331 332 332 330 330 330 329 329 329 329 329 327 326
305 306 307 311 316 326 332 333 333 332 330 332 331 329 329 328 327 326 326 325 325 324
300 302 304 308 313 321 327 330 331 331 332 332 331 328 326 324 325 324 324 324 322 322
297 299 301 302 304 308 323 327 327 329 329 329 328 326 323 323 324 323 322 321 320 320
295 296 297 298 300 302 305 326 326 326 327 328 327 325 322 321 322 321 320 319 320 320
292 293 293 295 297 298 300 303 321 324 324 324 325 324 322 322 322 320 321 320 319 319
291 291 292 293 294 295 297 298 299 302 318 323 323 323 322 321 321 320 320 320 319 320
289 291 291 291 292 292 293 294 296 295 296 296 299 294 294 315 320 318 318 317 319 323
288 288 289 290 290 290 290 290 291 291 292 292 292 289 291 295 317 318 317 316 319 322
286 286 286 287 288 289 289 288 287 287 288 288 288 289 290 291 306 317 317 318 318 318
284 284 286 286 286 286 287 287 286 286 286 286 286 287 289 289 291 290 289 290 292 300
282 282 283 283 284 285 286 286 285 285 284 284 284 286 286 289 289 287 285 287 288 288
282 281 282 283 283 285 285 285 287 285 285 285 284 286 286 285 286 286 285 285 285 285
281 282 282 283 283 283 284 284 284 284 284 284 284 284 285 284 282 281 281 281 281 283

GFSNIL_sfc_thetae_126.txt.gz
Theta_e
311 313 315 315 319 321 327 335 335 335 335 335 334 337 338 339 337 338 338 336 334 332
305 309 312 314 319 319 323 325 335 334 333 331 332 333 336 334 332 333 336 338 338 334
302 304 305 308 308 307 312 316 326 333 332 331 331 331 331 331 332 331 331 331 332 330
298 300 300 300 300 301 304 309 317 330 331 331 330 330 331 330 330 328 329 327 327 326
294 295 295 296 297 298 300 302 305 310 329 328 328 331 329 328 327 326 324 324 324 324
292 293 293 293 294 295 296 297 299 300 300 306 322 325 326 326 326 325 324 324 323 323
291 291 292 293 293 292 293 292 293 295 295 296 295 294 295 301 318 323 323 323 324 323
293 291 291 292 293 293 292 291 291 291 291 291 292 290 291 295 302 315 322 321 322 323
292 294 292 291 291 292 292 291 291 289 289 288 289 288 289 291 303 307 318 319 319 321
290 290 292 293 292 291 289 290 289 289 289 287 287 287 288 290 294 292 292 291 293 306
287 287 289 289 289 290 290 289 288 288 287 288 286 286 286 288 291 289 289 288 287 289
284 285 285 285 286 288 288 287 288 287 286 286 286 285 285 286 287 286 286 285 286 285
284 284 283 284 285 286 287 287 287 286 286 284 284 285 285 286 284 282 282 283 283 284
284 284 284 284 285 285 285 285 285 285 285 284 284 284 284 284 284 284 283 281 281 282

GFSNIL_sfc_thetae_129.txt.gz
Theta_e
310 315 317 318 320 321 324 328 338 339 339 337 335 335 336 338 337 336 337 335 332 334
305 306 308 310 311 314 316 318 324 331 336 337 335 333 333 333 337 336 335 336 337 334
300 302 303 304 304 306 310 311 316 320 331 336 335 333 331 331 333 334 334 334 335 332
297 299 299 298 298 300 302 303 304 307 308 327 332 333 331 329 330 328 331 331 331 332
296 296 296 296 295 296 296 298 298 298 299 298 298 298 302 321 328 328 328 328 327 327
295 294 294 295 294 295 294 295 295 294 293 293 293 293 295 298 302 320 325 326 325 325
295 295 294 294 294 294 294 293 292 292 291 291 290 290 292 295 298 303 310 324 326 325
293 293 293 293 292 292 291 291 291 291 289 289 289 288 289 294 301 303 304 303 315 323
291 292 292 292 292 292 291 290 291 289 289 287 287 287 288 292 293 292 290 291 292 297
289 289 290 290 291 291 290 290 289 289 289 288 286 286 287 288 290 288 288 287 287 289
287 287 288 287 288 289 289 288 288 287 287 287 286 285 286 288 289 287 286 285 285 285
285 285 286 285 286 287 287 287 286 286 286 285 285 285 285 288 289 288 285 284 284 284
285 284 284 285 286 287 287 287 287 287 287 285 285 284 284 285 286 284 285 285 284 283
286 285 285 285 286 286 287 286 286 286 286 285 284 284 283 284 283 283 284 283 283 284

GFSNIL_sfc_thetae_132.txt.gz
Theta_e
306 308 308 309 311 311 317 318 319 321 333 335 334 336 336 335 334 333 330 331 330 330
302 302 302 305 307 307 305 310 312 314 313 323 333 333 332 330 331 333 333 331 331 330
298 298 299 299 299 301 301 301 302 304 304 305 308 318 330 330 331 331 332 332 331 330
296 296 296 296 296 296 296 296 297 297 297 298 298 298 301 305 320 327 329 330 330 329
294 295 294 295 294 295 294 294 294 293 293 293 293 294 295 297 300 305 311 327 327 328
293 293 292 293 293 293 293 293 291 291 291 290 290 291 294 297 300 302 306 308 304 320
291 292 292 292 291 292 292 291 291 290 289 289 289 289 291 295 294 294 295 296 297 299
289 290 291 291 291 291 290 290 290 290 287 287 287 287 289 292 291 291 291 291 292 296
288 288 289 289 289 289 288 288 287 287 287 285 286 286 288 289 289 288 287 287 287 290
286 286 286 287 287 287 287 287 286 285 286 284 284 286 287 289 290 287 286 284 284 285
285 285 286 286 286 286 286 286 285 285 284 284 284 285 285 286 287 287 286 285 284 284
284 283 284 283 284 286 285 285 285 285 283 282 282 283 284 284 283 284 284 284 284 284
284 283 282 283 282 284 284 283 284 283 283 283 281 283 283 283 282 281 282 283 283 284
285 284 283 282 282 282 282 281 280 280 281 280 279 279 282 282 280 280 281 282 282 283

GFSNIL_sfc_thetae_135.txt.gz
Theta_e
300 301 307 306 306 308 314 310 309 307 314 311 312 332 333 332 333 332 331 328 327 327
298 299 300 300 300 300 301 305 304 301 302 305 304 305 319 329 328 330 329 329 328 328
297 298 298 297 295 296 296 297 297 297 297 298 299 300 304 307 309 318 324 329 328 329
294 295 295 294 293 293 293 293 293 293 293 294 295 299 301 302 304 306 308 308 306 316
293 291 291 291 292 292 291 291 291 291 290 291 292 296 297 297 297 297 297 298 301 299
289 290 289 289 289 290 290 288 288 288 288 289 290 291 293 293 293 293 293 293 296 294
287 288 288 288 288 288 288 288 286 286 287 287 287 290 291 290 290 290 290 290 292 291
287 288 287 287 287 287 286 286 286 284 285 285 286 288 289 289 288 287 287 287 287 289
286 286 287 287 286 286 285 285 285 283 283 283 284 286 287 288 287 287 285 285 285 287
284 284 285 285 285 285 284 283 282 282 282 281 283 284 285 286 286 285 284 284 284 284
283 282 283 283 283 283 283 283 281 280 279 280 282 284 283 284 284 284 284 284 284 283
281 280 280 280 281 281 280 280 280 279 278 277 279 283 283 281 281 281 282 284 283 283
282 280 279 278 279 280 279 278 279 278 277 278 276 281 282 281 280 279 280 282 282 284
282 280 279 278 278 277 277 276 275 274 275 274 275 276 280 281 278 278 278 279 280 281

GFSNIL_sfc_thetae_138.txt.gz
Theta_e
295 297 299 300 301 303 309 306 306 308 312 312 310 313 317 327 327 327 328 328 328 326
291 292 296 296 298 299 301 301 300 301 303 305 308 307 311 311 313 319 328 328 328 327
289 290 293 293 292 294 295 296 295 296 297 299 301 303 305 306 307 305 304 307 309 309
287 288 289 291 290 291 293 292 291 293 294 295 295 297 298 298 298 298 299 298 297 297
286 285 286 287 288 289 288 289 289 290 290 292 292 292 292 292 293 293 294 293 292 292
285 285 285 285 287 286 286 286 286 287 288 288 290 289 289 288 289 288 289 289 288 288
285 285 286 285 285 285 284 284 284 285 286 286 287 289 288 287 287 287 286 288 287 287
285 285 285 285 284 283 283 283 283 283 283 284 285 286 287 286 285 285 285 285 286 286
284 284 283 284 283 282 280 280 281 281 282 282 283 285 285 285 284 284 283 283 284 285
282 282 282 282 282 281 279 279 278 278 279 280 282 283 284 284 283 283 282 282 282 283
279 279 280 279 279 279 279 277 276 276 276 278 280 283 282 282 281 281 282 282 282 282
279 278 278 277 276 277 277 276 275 275 276 275 277 282 282 280 279 279 279 281 280 281
279 277 276 276 276 276 275 274 274 274 274 277 275 281 281 280 277 275 276 279 279 281
279 277 277 276 276 275 274 273 271 271 271 272 275 276 280 281 276 274 275 276 275 275

GFSNIL_sfc_thetae_141.txt.gz
Theta_e
289 289 292 293 293 297 298 301 302 309 313 311 315 316 322 328 320 328 326 323 326 325
288 288 289 290 290 292 295 298 300 304 305 306 307 308 310 315 310 311 309 309 310 313
287 287 288 287 287 288 290 293 296 298 299 299 299 299 299 300 303 302 301 301 300 300
286 286 286 286 285 286 287 290 293 293 293 293 294 294 293 294 294 293 292 293 292 293
285 285 284 283 284 285 285 288 290 292 291 291 291 290 290 289 289 289 288 289 289 288
284 284 282 282 282 283 284 284 285 287 288 288 287 287 288 287 287 286 286 286 286 285
282 283 283 282 281 281 282 283 283 283 285 286 286 286 286 285 285 285 285 286 285 285
282 282 282 281 280 280 279 280 282 282 282 283 284 285 284 284 284 284 284 284 285 285
280 280 280 280 279 278 278 278 279 280 281 281 282 285 285 284 282 283 282 282 283 283
279 278 278 278 278 277 276 277 277 277 279 280 280 283 283 283 281 280 281 281 281 281
278 277 277 276 275 275 275 275 275 276 277 279 280 281 281 280 280 280 278 279 280 279
277 276 276 275 275 274 274 274 274 275 276 275 279 281 279 278 277 278 276 276 278 278
278 276 275 275 274 275 274 274 274 274 274 277 274 280 280 277 275 273 273 273 274 278
278 276 275 275 275 274 273 273 271 272 273 273 275 275 279 278 273 272 270 270 270 272

GFSNIL_sfc_thetae_144.txt.gz
Theta_e
288 287 288 287 287 289 290 292 295 298 304 312 314 317 319 319 322 324 323 325 319 325
286 286 285 286 286 287 289 291 294 296 298 302 303 307 314 308 307 308 309 312 313 307
285 285 285 284 284 285 286 287 290 292 293 296 298 299 299 297 296 295 295 299 298 299
284 283 283 282 283 284 285 285 286 288 290 291 292 294 294 293 292 291 291 292 292 292
283 282 280 280 280 282 283 284 284 285 286 287 289 290 290 288 289 289 286 287 288 288
281 280 279 278 279 279 281 282 283 284 284 284 285 287 288 287 286 285 285 285 285 285
279 280 279 278 278 278 280 281 281 282 282 283 283 284 284 285 284 284 284 284 284 284
278 278 279 278 278 278 279 279 281 280 281 282 283 283 282 282 282 282 281 282 283 283
278 277 277 276 277 277 277 278 279 280 279 279 281 283 282 281 281 280 279 279 280 282
277 276 276 276 276 275 275 276 277 278 279 278 279 281 281 279 277 278 278 278 278 279
277 276 276 275 274 275 275 275 275 276 276 278 278 279 279 278 276 275 275 277 277 277
277 276 275 274 274 274 275 275 275 275 275 275 277 279 277 276 274 273 272 273 277 276
277 276 274 275 274 274 274 274 275 274 274 276 274 278 277 274 273 270 270 271 272 276
278 276 275 275 275 274 273 272 271 271 272 272 274 274 277 275 270 269 268 268 268 271